Crosby, ND

9:07 PM CDT on March 24, 2017 (GMT -0500)
Crosby

Weather History for KD50 - April, 2014

Change the Weather History Date:

Thursday, April 24, 2014

  Actual Average (KISN) Record (KISN)
Temperature  
Mean Temperature 45 °F -  
Max Temperature 57 °F 61 °F 90 °F (1962)
Min Temperature 32 °F 35 °F 17 °F (1907)
Degree Days  
Heating Degree Days 20    
Moisture  
Dew Point 34 °F    
Average Humidity 73    
Maximum Humidity 100    
Minimum Humidity 33    
Precipitation  
Precipitation 0.41 in - - ()
Sea Level Pressure  
Sea Level Pressure 29.66 in    
Wind  
Wind Speed 7 mph (SW)    
Max Wind Speed 18 mph    
Max Gust Speed 26 mph    
Visibility 10 miles    
Events      
Averages and records for this station are not official NWS values.
T = Trace of Precipitation, MM = Missing Value Source: NWS Daily Summary

Daily Weather History Graph

Daily Weather History Graph

Search for Another Location

Airport or City:

Trip Planner

Search our weather history database for the weather conditions in past years. The results will help you decide how hot, cold, wet, or windy it might be!

Date:

Astronomy

Apr. 24, 2014 Rise Set
Actual Time 6:44 AM CDT 8:58 PM CDT
Civil Twilight 6:10 AM CDT 9:33 PM CDT
Nautical Twilight 5:27 AM CDT 10:16 PM CDT
Astronomical Twilight 4:38 AM CDT 11:05 PM CDT
Moon 4:23 AM CDT (4/24) 3:52 PM CDT (4/24)
Length of Visible Light 15h 22m
Length of Day
14h 13m
Waning Crescent, 24% of the Moon is Illuminated
Apr 24
Waning Crescent
Apr 29
New
May 6
First Quarter
May 14
Full
May 21
Last Quarter

Hourly Weather History & Observations

Time (CDT) Temp. Windchill Dew Point Humidity Pressure Visibility Wind Dir Wind Speed Gust Speed Precip Events Conditions
12:15 AM 41.0 °F - 41.0 °F 100% 29.62 in 10.0 mi Calm Calm - N/A   Partly Cloudy
12:35 AM 41.0 °F 39.0 °F 41.0 °F 100% 29.63 in 10.0 mi SSW 3.5 mph - N/A   Mostly Cloudy
12:55 AM 39.2 °F 35.0 °F 39.2 °F 100% 29.62 in 10.0 mi SE 5.8 mph - N/A   Mostly Cloudy
1:15 AM 39.2 °F 35.9 °F 39.2 °F 100% 29.62 in 10.0 mi South 4.6 mph - N/A   Partly Cloudy
1:35 AM 37.4 °F 32.1 °F 37.4 °F 100% 29.62 in 10.0 mi SSW 6.9 mph - N/A   Clear
1:55 AM 35.6 °F 28.0 °F 35.6 °F 100% 29.62 in 10.0 mi SSW 10.4 mph - N/A   Clear
2:15 AM 37.4 °F 29.8 °F 37.4 °F 100% 29.63 in 10.0 mi SSW 11.5 mph - N/A   Scattered Clouds
2:35 AM 37.4 °F 30.8 °F 37.4 °F 100% 29.64 in 10.0 mi South 9.2 mph - N/A   Scattered Clouds
2:55 AM 37.4 °F 30.8 °F 37.4 °F 100% 29.63 in 10.0 mi SSW 9.2 mph - N/A   Scattered Clouds
3:15 AM 35.6 °F 28.6 °F 35.6 °F 100% 29.63 in 10.0 mi SSW 9.2 mph - N/A   Clear
3:35 AM 35.6 °F 27.1 °F 35.6 °F 100% 29.63 in 10.0 mi SSW 12.7 mph - N/A   Clear
3:55 AM 33.8 °F 27.0 °F 33.8 °F 100% 29.63 in 10.0 mi SSW 8.1 mph - N/A   Partly Cloudy
4:15 AM 33.8 °F 28.6 °F 33.8 °F 100% 29.64 in 10.0 mi SSW 5.8 mph - N/A   Clear
4:35 AM 33.8 °F 26.4 °F 33.8 °F 100% 29.64 in 10.0 mi South 9.2 mph - N/A   Clear
4:55 AM 33.8 °F 27.0 °F 33.8 °F 100% 29.65 in 10.0 mi SW 8.1 mph - N/A   Clear
5:35 AM 35.6 °F 30.7 °F 32.0 °F 87% 29.65 in 10.0 mi SSE 5.8 mph - N/A   Clear
5:55 AM 35.6 °F 31.7 °F 32.0 °F 87% 29.66 in 10.0 mi SSE 4.6 mph - N/A   Clear
6:15 AM 33.8 °F 29.6 °F 32.0 °F 93% 29.66 in 10.0 mi SE 4.6 mph - N/A   Scattered Clouds
6:35 AM 35.6 °F 28.6 °F 32.0 °F 87% 29.66 in 10.0 mi South 9.2 mph - N/A   Scattered Clouds
6:55 AM 35.6 °F 28.0 °F 32.0 °F 87% 29.66 in 10.0 mi SSW 10.4 mph - N/A   Mostly Cloudy
7:15 AM 35.6 °F 28.0 °F 32.0 °F 87% 29.66 in 10.0 mi SSW 10.4 mph - N/A   Mostly Cloudy
7:35 AM 35.6 °F 31.7 °F 33.8 °F 93% 29.67 in 10.0 mi SSW 4.6 mph - N/A   Mostly Cloudy
7:55 AM 37.4 °F 30.3 °F 32.0 °F 81% 29.67 in 10.0 mi WSW 10.4 mph - N/A   Mostly Cloudy
8:15 AM 37.4 °F 29.3 °F 32.0 °F 81% 29.68 in 10.0 mi WSW 12.7 mph - N/A   Mostly Cloudy
8:35 AM 39.2 °F 31.2 °F 35.6 °F 87% 29.68 in 10.0 mi West 13.8 mph - N/A   Scattered Clouds
8:55 AM 39.2 °F 31.6 °F 35.6 °F 87% 29.68 in 10.0 mi West 12.7 mph - N/A   Mostly Cloudy
9:15 AM 39.2 °F 31.6 °F 37.4 °F 93% 29.69 in 10.0 mi West 12.7 mph - N/A   Overcast
9:35 AM 41.0 °F 34.7 °F 39.2 °F 93% 29.69 in 10.0 mi WNW 10.4 mph - N/A   Overcast
9:55 AM 42.8 °F 37.0 °F 41.0 °F 93% 29.70 in 10.0 mi WNW 10.4 mph - N/A   Overcast
10:15 AM 46.4 °F 41.1 °F 42.8 °F 87% 29.70 in 10.0 mi WNW 11.5 mph - N/A   Scattered Clouds
10:35 AM 46.4 °F 41.1 °F 44.6 °F 93% 29.71 in 10.0 mi NW 11.5 mph 19.6 mph N/A   Mostly Cloudy
10:55 AM 46.4 °F 41.1 °F 42.8 °F 87% 29.71 in 10.0 mi WNW 11.5 mph - N/A   Overcast
11:15 AM 48.2 °F - 41.0 °F 76% 29.71 in 10.0 mi NW 10.4 mph - N/A   Mostly Cloudy
11:35 AM 50.0 °F - 41.0 °F 71% 29.72 in 10.0 mi WNW 13.8 mph 18.4 mph N/A   Mostly Cloudy
11:55 AM 50.0 °F - 41.0 °F 71% - - North - - N/A   Unknown
12:15 PM 50.0 °F - 41.0 °F 71% - - North - - N/A   Unknown
12:35 PM 50.0 °F - 39.2 °F 66% 29.73 in 10.0 mi WNW 10.4 mph - N/A   Unknown
12:55 PM 51.8 °F - 39.2 °F 62% 29.72 in 10.0 mi West 18.4 mph - N/A   Scattered Clouds
1:15 PM 53.6 °F - 35.6 °F 51% 29.72 in 10.0 mi West 16.1 mph 26.5 mph N/A   Scattered Clouds
1:55 PM 53.6 °F - 32.0 °F 44% - - North - - N/A   Unknown
2:15 PM 55.4 °F - 30.2 °F 38% - - North - - N/A   Unknown
2:35 PM 55.4 °F - 32.0 °F 41% - - NNW 5.8 mph - N/A   Unknown
2:55 PM 55.4 °F - 32.0 °F 41% - - North - - N/A   Unknown
3:15 PM 55.4 °F - 30.2 °F 38% - - North - - N/A   Unknown
3:35 PM 53.6 °F - 32.0 °F 44% - - North - - N/A   Unknown
3:55 PM 55.4 °F - 32.0 °F 41% - - North - - N/A   Unknown
4:15 PM 53.6 °F - 30.2 °F 41% - - North - - N/A   Unknown
4:35 PM 57.2 °F - 32.0 °F 38% - - North - - N/A   Unknown
4:55 PM 55.4 °F - 30.2 °F 38% - - North - - N/A   Unknown
5:15 PM 55.4 °F - 32.0 °F 41% - - North - - N/A   Unknown
5:35 PM 57.2 °F - 30.2 °F 36% - - North - - N/A   Unknown
5:55 PM 55.4 °F - 30.2 °F 38% - - North - - N/A   Unknown
6:15 PM 55.4 °F - 28.4 °F 36% - - North - - N/A   Unknown
6:35 PM 57.2 °F - 28.4 °F 33% - - North - - N/A   Unknown
6:55 PM 57.2 °F - 28.4 °F 33% - - North - - N/A   Unknown
7:15 PM 55.4 °F - 30.2 °F 38% - - North - - N/A   Unknown
7:35 PM 55.4 °F - 30.2 °F 38% - - North - - N/A   Unknown
7:55 PM 53.6 °F - 30.2 °F 41% - - North - - N/A   Unknown
8:15 PM 51.8 °F - 32.0 °F 47% - - North - - N/A   Unknown
8:35 PM 48.2 °F - 32.0 °F 54% - - North - - N/A   Unknown
8:55 PM 44.6 °F - 33.8 °F 66% - - North - - N/A   Unknown
9:15 PM 41.0 °F - 32.0 °F 70% - - North - - N/A   Unknown
9:55 PM 39.2 °F - 32.0 °F 75% - - North - - 0.41 in   Unknown
10:15 PM 37.4 °F - 32.0 °F 81% - - North - - N/A   Unknown
10:35 PM 39.2 °F - 32.0 °F 75% - - North - - N/A   Unknown
10:55 PM 35.6 °F - 32.0 °F 87% - - Calm Calm - N/A   Unknown
11:15 PM 35.6 °F - 32.0 °F 87% - - North - - N/A   Unknown
11:35 PM 35.6 °F - 32.0 °F 87% - - North - - N/A   Unknown
11:55 PM 32.0 °F - 32.0 °F 100% - - North - - N/A   Unknown